Regional Weather Roundup
Issued by NWS Newport/Morehead, NC

Current Version | Previous Version | Text Only | Print | Product List | Glossary Off
Versions: 1 2 3 4 5 6 7 8 9 10 11 12 13 14 15 16 17 18 19 20 21 22 23 24 25 26 27 28 29 30 31 32 33 34 35 36 37 38 39 40 41 42 43 44 45 46 47 48 49 50
000 ASUS42 KMHX 192325 RWRMHX WEATHER ROUNDUP FOR EASTERN NORTH CAROLINA NATIONAL WEATHER SERVICE NEWPORT/MOREHEAD CITY NC 700 PM EDT THU OCT 19 2017 NOTE: "FAIR" INDICATES FEW OR NO CLOUDS BELOW 12,000 FEET WITH NO SIGNIFICANT WEATHER AND/OR OBSTRUCTIONS TO VISIBILITY NCZ015>017-031-032-045>047-102-103-200000- NORTH COAST CITY SKY/WX TMP DP RH WIND PRES REMARKS EDENTON CLEAR 64 59 85 CALM 30.19S ELIZABETH CITY CLEAR 67 60 78 SE5 30.18S KITTY HAWK CLEAR 66 58 77 CALM 30.18R MANTEO CLEAR N/A N/A N/A CALM 30.19S $$ NCZ045>047-081-094-103-104-200000- CENTRAL COAST CITY SKY/WX TMP DP RH WIND PRES REMARKS FRISCO CLEAR 67 61 81 NE5 30.18S $$ NCZ095-097-098-100-101-200000- SOUTHERN COAST CITY SKY/WX TMP DP RH WIND PRES REMARKS BEAUFORT CLEAR 68 60 75 CALM 30.19R CEDAR ISLAND NOT AVBL JACKSONVILLE CLEAR 69 61 75 S5 30.18R PINEY ISLAND N/A N/A N/A N/A E7 30.18S WILMINGTON CLEAR 67 61 81 CALM 30.18S $$ NCZ011>013-027>030-043-044-078>080-089-090>093-098-200000- COASTAL PLAIN CITY SKY/WX TMP DP RH WIND PRES REMARKS AHOSKIE CLEAR 60 56 88 CALM 30.20R CLINTON CLEAR 65 59 81 CALM 30.20R ELIZABETHTOWN NOT AVBL GOLDSBORO CLEAR 67 55 66 CALM 30.18S GREENVILLE CLEAR 61 59 94 CALM 30.21R HAVELOCK CLEAR 69 62 78 CALM 30.19R KENANSVILLE CLEAR 63 57 82 CALM 30.20R KINSTON CLEAR 66 55 68 NW3 30.20R NEW BERN CLEAR 63 59 87 CALM 30.19S RICHLANDS CLEAR 65 60 84 CALM 30.19R ROCKY MOUNT CLEAR 60 58 92 CALM 30.20R WASHINGTON CLEAR 64 58 83 CALM 30.19S WHITEVILLE CLEAR 66 60 79 CALM 30.19R $$ AMZ130-135-150-152-154-156-158-170-250-252-270-ANZ085-086-088-633-658-670-200000- MARINE OBSERVATIONS STATION/POSITION TIME TEMP WIND PRES WAVE SWELL AIR SEA DIR/SP/G HT/PER HT/PER (UTC) (F) (DEG/KT/KT) (MB) (FT/S) (FT/S) CHESAPEAKE LIGHT NOT AVBL 64 E VA BEACH 2250 68 70 90/ 4/ 4 1022.6 3/ 8 3/ 8 DUCK 2300 69 69 120/ 7/ 8 1021.7 2 E DUCK 2300 70 N/A 3/ 9 OREGON INLET 2300 68 68 60/ 3/ 5 1022.1 13E OREGON INLT 2248 71 N/A 3/ 8 3/ 8 HATTERAS CG 2300 68 70 70/ 2/ 3 1022.1 DIAMOND BUOY 2250 74 81 30/ 8/ 10 1021.7 4/ 8 5/ 8 CAPE LOOKOUT 2300 72 40/ 5/ 5 1021.8 BEAUFORT LAB 2300 70 71 70/ 2/ 4 1022.4 30 SE NEW RVR IN 2308 75 60/ 6/ 10 1021.7 30 SE NEW RVR IN NOT AVBL 27 SE WRIGHTSVLE 2308 75 77 60/ 10/ 14 1021.8 5 SE WRIGHTSVLE 2308 74 74 90/ 8/ 12 1021.8 225 S CAPE HAT 2250 78 80 40/ 17/ 21 1018.4 6/ 8 3/ 8 41 SE CHARLESTON 2310 76 80 20/ 14/ 17 1021.0 $$

USA.gov is the U.S. government's official web portal to all federal, state and local government web resources and services.